Regional Weather Roundup
Issued by NWS

Home | Current Version | Previous Version | Text Only | Print | Product List | Glossary Off
Versions: 1 2 3 4 5 6 7 8 9 10 11 12 13 14 15 16 17 18 19 20 21 22 23 24 25 26 27 28 29 30 31 32 33 34 35 36 37 38 39 40 41 42 43 44 45 46 47 48 49 50

000
ASUS45 KBOU 191107
RWRCO

WEATHER ROUNDUP FOR COLORADO
NATIONAL WEATHER SERVICE DENVER/BOULDER CO
500 AM MDT SUN OCT 19 2014

NOTE: "FAIR" INDICATES FEW OR NO CLOUDS BELOW 12000 FEET WITH NO
SIGNIFICANT WEATHER AND/OR OBSTRUCTIONS TO VISIBILITY.

COZ001>005-013-030-031-191200-
...NORTHWEST COLORADO...

CITY           SKY/WX    TMP DP  RH WIND       PRES   REMARKS
CRAIG          PTCLDY    30  26  85 CALM      30.19S
HAYDEN         PTCLDY    39  28  65 E13       30.20R
MEEKER         MOCLDY    40  33  76 VRB5      30.19S
MOUNT WERNER   NOT AVBL
STEAMBOAT SPGS PTCLDY    36  29  78 CALM      30.22R
WALDEN         CLEAR     28  23  80 SE6       30.26R WCI  22
$$

COZ006>008-011-191200-
...WEST CENTRAL VALLEYS...

CITY           SKY/WX    TMP DP  RH WIND       PRES   REMARKS
GRAND JUNCTION CLOUDY    51  36  56 CALM      30.09S
MONTROSE       MOCLDY    50  38  63 SE9       30.16R
EAGLE          CLOUDY    43  36  75 CALM      30.24S
RIFLE          MOCLDY    50  37  61 E3        30.15S
DELTA          CLOUDY    55  43  63 CALM      30.13R
NUCLA          PTCLDY    45  36  70 E8        30.18R
$$

COZ017>023-064>068-191200-
...SOUTHWEST COLORADO...

CITY           SKY/WX    TMP DP  RH WIND       PRES   REMARKS
DURANGO        PTCLDY    39  36  89 CALM      30.18F
CORTEZ         CLEAR     42  36  79 SE3       30.13F
PAGOSA SPRINGS CLEAR     42  38  85 CALM      30.25S
TELLURIDE      PTCLDY    46  35  66 SE5       30.30S
WOLF CREEK PAS PTCLDY    32  32 100 SW18      30.42R WCI  20
$$

COZ009-010-012-014-032>034-037-058>063-191200-
...CENTRAL COLORADO...

CITY           SKY/WX    TMP DP  RH WIND       PRES   REMARKS
ASPEN          CLOUDY   N/A N/A N/A CALM      30.24R
BUENA VISTA    CLOUDY    46  31  58 NW7       30.25R
COPPER MTN     MOCLDY    37  27  65 W9        30.43S
BERTHOUD PASS  FAIR      32  28  86 NW12      30.46S WCI  23
COTTONWOOD PAS CLOUDY    46  32  57 W5        30.33R
GUNNISON       PTCLDY    43  30  61 CALM      30.27R
KREMMLING      PTCLDY    30  27  86 CALM        N/A
LEADVILLE      CLOUDY    36  27  69 N3        30.32S
MONARCH PASS   CLOUDY    34  28  80 SW8       30.52R WCI  27
SALIDA         CLOUDY    50  35  55 NW8       30.30R
SUNLIGHT       FLURRIES  43  30  61 CALM      30.39S
WILKERSON PASS NOT AVBL
$$

COZ069>075-191200-
...SAN LUIS VALLEY/SANGRE DE CRISTO MOUNTAINS...

CITY           SKY/WX    TMP DP  RH WIND       PRES   REMARKS
ALAMOSA        PTCLDY    38  34  85 CALM      30.23R
LA VETA PASS   PTCLDY    39  34  81 S8G22     30.31S
SAGUACHE       NOT AVBL
$$

COZ035-036-038>040-191200-
...NORTHERN COLORADO FRONT RANGE...

CITY           SKY/WX    TMP DP  RH WIND       PRES   REMARKS
DENVER INTL AP MOCLDY    49  37  63 SW10      30.08R
DMNS CITY PARK   N/A     46  37  71 SW3       30.08S
AURORA         PTCLDY    48  36  62 SW8       30.10S
FRONT RANGE AP MOCLDY    52  37  58 SW9       30.09S
ERIE MUNI ARPT PTCLDY    43  37  80 CALM      30.08R
BOULDER MUN AP PTCLDY    50  36  57 W5        30.07S
CENTENNIAL     PTCLDY    45  35  68 CALM      30.11R
BROOMFIELD     PTCLDY    52  32  46 W3        30.10R
FORT COLLINS   PTCLDY    46  36  66 CALM      30.08R
LONGMONT       PTCLDY    42  36  79 SW3       30.09S
$$

COZ041-046-047-076>085-087-088-191200-
...PIKES PEAK/PALMER DIVIDE AND SOUTHERN FOOTHILLS...

CITY           SKY/WX    TMP DP  RH WIND       PRES   REMARKS
COLO. SPRINGS  MOCLDY    49  35  58 N8        30.11R
A. F. ACADEMY  PTCLDY    43  36  76 N10       30.13R
ELLICOTT       NOT AVBL
FALCON         MOCLDY    53  30  41 N8        30.14S
FORT CARSON    MOCLDY    43  37  78 N9        30.08S
LIMON          CLEAR     40  37  89 W9        30.07S
MONUMENT HILL  PTCLDY    41  32  70 W8        30.15R
TRINIDAD       MOCLDY    52  42  69 SW17      30.08F
$$

COZ042>045-048>051-090-091-191200-
...NORTHEAST COLORADO...

CITY           SKY/WX    TMP DP  RH WIND       PRES   REMARKS
GREELEY ARPT   PTCLDY    36  28  75 W3        30.07R
AKRON          CLEAR     43  39  86 W13       30.03S
BURLINGTON     CLEAR     40  38  93 SW8       30.03S
WRAY           CLEAR    N/A N/A N/A SW6       30.01F
STERLING       CLEAR     36  36 100 S6        30.02S
HOLYOKE        CLEAR     37  36  93 W5        30.02R
FORT MORGAN    CLEAR     36  34  92 W10       30.05R
$$

COZ086-089-092>099-191200-
...SOUTHEAST COLORADO...

CITY           SKY/WX    TMP DP  RH WIND       PRES   REMARKS
PUEBLO         MOCLDY    47  41  80 CALM      30.05S
LA JUNTA       CLEAR     44  41  89 W7        30.04R
LAMAR          CLEAR     42  40  92 W5        30.00S
SPRINGFIELD      N/A     47  44  90 SW10      30.03F
$$


USA.gov is the U.S. government's official web portal to all federal, state and local government web resources and services.